Location: Cuesta
(41.0828°N, 3.9602°W)
Time: 02:32:25
(UTC+00:00)

Daily predictions for brighter satellites

Satellite Brightness Start Highest point End
(mag) Time Altitude Azimuth Time Altitude Azimuth Time Altitude Azimuth
Cosmos 1503 Rocket 3.9 00:04:24 10° NNW 00:09:41 76° WSW 00:09:45 76° WSW
Cosmos 2237 4.4 00:04:40 10° NNW 00:10:23 65° ENE 00:11:25 54° ESE
Cosmos 1825 Rocket 3.8 00:12:28 66° N 00:12:28 66° N 00:16:13 10° N
SL-4 R/B 3.9 00:16:42 21° NE 00:16:42 21° NE 00:18:02 10° NE
Cosmos 1777 Rocket 4.0 00:15:15 10° NNW 00:20:33 71° ENE 00:20:59 67° ESE
SJ 16-02 1.6 00:17:18 10° NNW 00:21:09 66° NNW 00:21:09 66° NNW
ADEOS Rocket 3.7 00:25:09 45° SW 00:26:53 54° W 00:34:22 10° NNW
Resurs 1-4 Rocket 4.4 00:24:58 10° ENE 00:27:00 12° E 00:28:01 12° E
CZ-2D R/B 4.4 00:27:10 10° ENE 00:29:00 12° E 00:29:57 11° E
Cosmos 1934 Rocket 3.8 00:24:20 10° N 00:30:28 86° E 00:31:28 64° SSE
SL-16 R/B 2.2 00:26:03 10° NNW 00:31:38 61° WSW 00:31:47 61° WSW
Cosmos 1980 Rocket 4.2 00:30:42 10° WNW 00:33:31 14° W 00:33:31 14° W
Cosmos 1842 Rocket 4.5 00:29:56 10° N 00:34:10 40° ENE 00:34:11 40° ENE
Cosmos 2219 Rocket 3.6 00:34:56 10° N 00:40:00 32° ENE 00:43:14 19° ESE
Cosmos 2221 2.8 00:37:14 10° N 00:41:11 62° NE 00:41:11 62° NE
CENTAUR R/B 3.6 00:43:37 26° ESE 00:43:51 26° ESE 00:49:04 10° NE
Cosmos 1339 Rocket 4.4 00:45:16 61° SSW 00:46:23 78° W 00:52:34 10° N
Cosmos 1535 Rocket 4.5 00:44:17 10° N 00:50:43 81° W 00:51:57 60° SSW
ATLAS 5 CENTAUR R/B 4.1 00:52:59 10° WNW 00:54:47 13° NNW 00:56:42 10° N
Cosmos 2058 4.5 00:58:24 27° WNW 00:58:24 27° WNW 01:01:41 10° NNW
ADEOS II 4.4 00:59:02 10° ENE 01:01:24 13° E 01:03:15 11° ESE
ERS-2 4.3 00:58:56 10° NNW 01:01:06 18° WNW 01:01:06 18° WNW
Cosmos 1340 Rocket 4.2 01:02:54 30° NW 01:02:54 30° NW 01:05:53 10° N
COSMOS 2487 4.3 01:06:59 25° NNE 01:06:59 25° NNE 01:08:28 10° NNE
Gbstr 26 Del rocket 3.8 01:05:10 45° WNW 01:06:11 55° NNW 01:11:27 10° NE
Cosmos 2322 Rocket 2.7 01:03:05 10° NW 01:08:16 42° WSW 01:08:16 42° WSW
Cosmos 1605 Rocket 4.0 01:09:58 10° NNW 01:16:20 68° W 01:17:43 54° SSW
Thor Agena Rocket 3.7 01:13:10 10° NNE 01:18:17 58° ESE 01:18:57 54° SE
Cosmos 2333 Rocket 2.2 01:12:38 10° NNW 01:18:26 87° ENE 01:19:50 54° SSE
Meteor 2-3 Rocket 3.6 01:19:18 62° SW 01:20:11 77° W 01:25:48 10° N
USA 234 3.9 01:21:50 35° WSW 01:21:50 35° WSW 01:27:09 10° WNW
Cosmos 1763 Rocket 3.3 01:21:41 71° SSW 01:22:17 88° WNW 01:27:35 10° NNE
Cosmos 1862 4.4 01:22:30 35° E 01:22:30 35° E 01:25:58 10° NNE
USA 238 DEB 4.5 01:25:28 30° SE 01:26:58 34° ESE 01:32:50 10° NE
USA 238 4.5 01:25:36 30° SE 01:27:07 34° ESE 01:32:58 10° NE
Cosmos 1782 3.0 01:24:09 10° N 01:27:39 68° N 01:27:39 68° N
Cosmos 841 Rocket 4.1 01:29:13 39° SE 01:30:04 42° ESE 01:34:55 10° NNE
IDEFIX/ARIANE 42P 4.4 01:28:21 10° NE 01:32:19 22° E 01:34:24 17° SE
Cosmos 1812 2.9 01:30:34 10° N 01:33:56 67° NNE 01:33:56 67° NNE
Cosmos 990 Rocket 3.8 01:31:07 10° NNW 01:36:17 87° WSW 01:37:10 62° SSE
Cosmos 972 4.4 01:31:31 10° NNW 01:36:31 72° WSW 01:37:13 63° SSW
Cosmos 1076 Rocket 4.1 01:37:30 45° WNW 01:37:30 45° WNW 01:41:39 10° N
CZ-4 R/B 4.4 01:34:04 10° NNE 01:38:50 49° E 01:39:51 42° SE
Cosmos 1340 4.3 01:38:17 10° NNE 01:41:30 27° ENE 01:42:27 24° E
Cosmos 2227 Rocket 4.0 01:40:31 16° SE 01:42:49 20° E 01:46:48 10° NE
Cosmos 2285 Rocket 4.0 01:42:10 48° SSW 01:44:10 84° WNW 01:50:38 10° NNE
Cosmos 468 Rocket 4.2 01:44:07 52° WSW 01:45:09 64° WNW 01:50:26 10° NNE
Cosmos 2333 4.3 01:39:44 10° NNW 01:45:22 55° WSW 01:46:11 51° SW
Cosmos 2360 Rocket 3.1 01:40:33 10° NW 01:45:22 32° W 01:45:22 32° W
Geosat 3.9 01:50:48 57° SSW 01:51:35 67° WSW 01:56:36 10° NNW
SL-4 R/B 4.0 01:52:08 15° WNW 01:54:11 23° NNW 01:57:18 10° NE
SL-27 R/B 4.4 01:54:48 19° NW 01:54:48 19° NW 01:56:47 10° NNW
UNK 4.4 01:58:48 26° SE 02:01:08 51° ENE 02:05:41 10° N
Cosmos 540 Rocket 3.6 02:01:17 48° SW 02:02:29 64° WNW 02:07:36 10° NNE
BREEZE-M DEB (TANK) 3.5 01:57:45 10° WNW 02:03:20 46° W 02:03:20 46° W
COSMOS 2428 2.6 01:59:43 10° NNW 02:05:26 79° WSW 02:07:54 36° SSE
Resurs 1-4 Rocket 2.0 02:02:04 10° NNE 02:07:25 81° WNW 02:09:05 45° SSW
ISS -2.3 02:08:05 29° NW 02:08:43 32° NNW 02:11:48 10° NE
Cosmos 2237 Rocket 3.4 02:03:31 10° N 02:08:54 42° ENE 02:14:12 10° SE
CZ-2D R/B 2.0 02:04:23 10° NNE 02:09:37 81° WNW 02:11:16 45° SSW
USA 290 3.5 02:06:48 10° NNW 02:08:48 33° NW 02:08:48 33° NW
OAO 3 Rocket 3.8 02:11:31 39° SSE 02:11:31 39° SSE 02:15:37 10° ESE
Cosmos 2151 4.4 02:11:55 24° W 02:12:13 24° WNW 02:15:45 10° NNW
Cosmos 2297 Rocket 2.6 02:10:09 34° SSE 02:12:19 55° ESE 02:17:49 10° NNE
Cosmos 1151 Rocket 3.1 02:08:10 10° N 02:12:34 75° E 02:13:55 43° SSE
NOSS 3-2 (A) 3.5 02:10:47 37° WSW 02:12:55 63° NW 02:19:07 10° NNE
Cosmos 1898 Rocket 3.5 02:08:09 10° NNW 02:13:15 61° WSW 02:14:34 46° SSW
Cosmos 1328 Rocket 4.3 02:11:55 10° N 02:16:13 49° E 02:18:31 24° SE
Cosmos 2322 4.1 02:15:33 10° NW 02:20:52 43° WSW 02:22:01 38° SW
SL-16 R/B 2.5 02:17:13 26° SSE 02:21:01 85° WSW 02:27:19 10° NNW
Cosmos 1184 Rocket 3.1 02:18:27 10° NNW 02:20:53 51° NNW 02:20:53 51° NNW
NOSS 0 Rocket 3.9 02:17:27 10° NNW 02:23:40 86° ENE 02:29:31 11° SSE
Cosmos 1356 Rocket 3.4 02:22:47 49° SSE 02:23:43 70° E 02:27:41 10° NNE
Cosmos 2219 Rocket 2.8 02:18:48 10° NW 02:23:58 37° WSW 02:24:53 35° SW
Cosmos 1937 Rocket 3.4 02:19:26 10° NNW 02:24:40 68° WSW 02:26:47 35° S
Meteor 1-27 Rocket 4.3 02:22:34 10° N 02:28:05 55° ENE 02:33:07 12° SSE
MSX 4.3 02:22:28 10° NNE 02:28:09 56° E 02:31:37 24° S
Cosmos 1766 Rocket 3.4 02:29:06 46° SSW 02:30:20 80° W 02:34:43 10° N
CENTAUR R/B 2.9 02:30:47 27° WSW 02:33:54 53° NW 02:40:43 10° NNE
Cosmos 1814 Rocket 3.9 02:37:27 35° SSW 02:39:39 84° WNW 02:44:49 10° NNE
Cosmos 1459 Rocket 4.4 02:34:05 10° NNW 02:39:41 41° W 02:42:03 29° SW
ADEOS II 2.1 02:36:21 10° N 02:41:37 75° WNW 02:44:11 31° SSW
EO 1 Del DPAF 3.1 02:44:10 10° NNE 02:47:37 67° ESE 02:48:50 37° S
Cosmos 1570 Rocket 4.0 02:44:58 29° SSW 02:47:40 83° ESE 02:52:56 10° NNE
Cosmos 1408 Rocket 3.6 02:50:14 26° S 02:52:35 73° E 02:56:53 10° NNE
BREEZE-M DEB (TANK) 4.1 02:52:21 24° S 02:53:17 26° SSE 02:55:55 10° E
Meteor 1-10 Rocket 4.5 02:48:27 10° NNW 02:54:12 55° W 02:57:38 24° SSW
Cosmos 2208 Rocket 4.1 02:52:36 25° S 02:55:53 78° ESE 03:01:19 10° NNE
Okean 3 Rocket 3.9 02:54:08 32° SW 02:55:58 53° W 03:00:26 10° N
MOS 1 Rocket 4.2 02:55:23 28° SW 02:57:05 35° W 03:01:53 10° NNW
AQUA 4.5 02:53:16 10° N 02:57:44 41° WNW 02:59:53 26° WSW
NOSS 3-2 (C) 3.6 02:55:57 24° WSW 02:59:12 56° NW 03:05:24 10° NNE
BREEZE-M DEB (TANK) 4.4 02:57:29 10° NW 02:59:39 22° NNE 03:01:28 10° ENE
Cosmos 220 Rocket 4.2 02:56:05 10° NNW 03:00:24 53° WSW 03:02:51 24° S
Cosmos 1725 Rocket 4.3 02:55:16 10° NNW 03:01:10 48° W 03:04:55 22° SSW
Cosmos 2333 Rocket 4.1 02:59:35 10° WNW 03:01:47 12° W 03:01:47 12° W
Cosmos 2233 Rocket 3.9 02:57:16 10° NNW 03:03:23 72° W 03:08:40 14° S
Cosmos 1400 Rocket 2.7 03:03:09 27° S 03:05:16 88° WNW 03:09:18 10° N
COSMOS 2455 2.8 03:02:01 10° NNW 03:08:02 77° WSW 03:14:02 10° SSE
OE (NEXTSAT) 4.3 03:08:27 36° SSW 03:09:31 57° SSE 03:12:45 10° ENE
Helios 1B rocket 3.8 03:06:18 10° NNE 03:10:05 35° E 03:13:51 10° SSE
Cosmos 1980 3.7 03:05:04 10° NNW 03:10:38 59° WSW 03:16:11 10° S
IDEFIX/ARIANE 42P 3.1 03:07:08 10° N 03:12:05 45° WNW 03:15:12 21° SW
Cosmos 1340 4.3 03:14:14 10° NW 03:16:42 17° W 03:17:00 17° W
USA 238 DEB 4.2 03:12:54 17° WSW 03:17:38 48° NW 03:24:13 10° NNE
USA 238 4.2 03:13:02 17° WSW 03:17:46 48° NW 03:24:21 10° NNE
Cosmos 1515 4.2 03:15:44 10° NNW 03:19:16 39° W 03:21:06 23° SSW
Cosmos 2098 Rocket 3.8 03:17:30 10° SSE 03:20:03 29° E 03:22:41 10° NNE
FENGYUN 3A 4.3 03:15:01 10° NNE 03:20:21 54° E 03:25:39 10° S
SL-24 R/B - RUBIN 2 4.5 03:18:15 15° S 03:22:00 46° ESE 03:26:19 10° NE
Cosmos 1500 Rocket 3.5 03:19:27 16° S 03:22:55 86° W 03:27:25 10° N
SL-19 R/B 4.2 03:19:25 10° NNE 03:24:41 78° ESE 03:29:36 11° S
SL-16 R/B 2.9 03:20:37 10° NNW 03:26:16 58° ENE 03:31:50 10° SE
Cosmos 2227 Rocket 2.5 03:22:20 19° SW 03:26:21 57° WNW 03:31:58 10° NNE
Helios 1A 3.8 03:30:09 18° SSW 03:32:39 32° W 03:36:26 10° NNW
Cosmos 2082 3.8 03:27:54 13° SSW 03:32:57 75° ESE 03:38:35 10° NNE
USA 215 4.2 03:30:53 10° ENE 03:36:56 39° SE 03:42:58 10° SSW
Cosmos 2263 Rocket 3.1 03:36:29 10° S 03:41:45 44° ESE 03:47:01 10° NE
Cosmos 1513 Rocket 4.5 03:36:14 10° N 03:42:20 89° W 03:48:26 10° S
IRIDIUM 114 4.4 03:38:12 10° S 03:43:24 83° E 03:48:38 10° N
Cosmos 332 Rocket 4.5 03:39:08 10° NNW 03:43:59 60° ENE 03:48:50 10° SSE
IRS-1D 4.1 03:40:16 10° N 03:44:56 41° WNW 03:49:04 13° SW
Meteor 2-4 Rocket 4.1 03:39:48 10° N 03:45:22 67° E 03:51:05 10° SSE
ISS -0.9 03:44:20 10° NW 03:46:16 14° N 03:48:13 10° NNE
Resurs 1-4 Rocket 4.3 03:44:45 10° NW 03:46:21 11° WNW 03:47:56 10° WNW
ALOS 2.4 03:42:34 10° NNE 03:47:15 80° ESE 03:51:54 10° S
Cosmos 1346 Rocket 2.7 03:43:35 10° NNW 03:47:27 70° W 03:51:20 10° S
CZ-2D R/B 4.3 03:47:37 10° NW 03:48:48 11° WNW 03:50:00 10° WNW
Cosmos 1633 Rocket 4.5 03:48:12 10° SSE 03:52:13 38° E 03:56:14 10° NNE
IRIDIUM 103 4.3 03:47:21 10° S 03:52:34 81° W 03:57:48 10° N
Cosmos 1666 3.2 03:49:31 13° SSW 03:52:40 42° W 03:56:14 10° N
Cosmos 2237 Rocket 3.1 03:48:00 10° NW 03:52:43 28° WSW 03:57:23 10° SSW
Cosmos 44 Rocket 3.6 03:49:07 13° SW 03:53:22 55° NW 03:58:04 10° NNE
OAO 3 Rocket 3.9 03:49:33 10° WSW 03:54:02 34° SSW 03:58:29 10° SE
Cosmos 2219 4.0 03:49:23 12° SW 03:54:11 39° WNW 03:59:28 10° N
ARIANE 5 R/B 3.0 03:49:23 10° NNE 03:54:24 62° ESE 03:59:26 10° S
Cosmos 1356 3.4 03:51:14 10° N 03:54:31 78° E 03:57:45 10° SSE
Cosmos 2297 Rocket 3.7 03:52:15 10° WSW 03:56:42 23° NW 04:01:10 10° N
Cosmos 1378 3.0 03:54:01 10° NNW 03:57:42 73° W 04:01:22 10° S
IRS-1C 4.3 03:52:38 10° NNE 03:58:00 81° ESE 04:03:19 10° SSW
CZ-2C R/B 2.2 03:58:50 10° N 04:03:25 78° WNW 04:07:58 10° SSW
SL-16 R/B 4.3 04:03:06 10° WSW 04:05:26 12° W 04:07:45 10° WNW
Lacrosse 4 Rocket 1.3 04:02:03 10° NNW 04:06:07 83° WSW 04:10:13 10° SSE
Cosmos 371 Rocket 3.8 04:01:49 10° NW 04:06:18 40° WSW 04:10:47 10° S
Cosmos 1544 3.2 04:03:22 10° SSW 04:06:47 52° W 04:10:15 10° N
Cosmos 2298 Rocket 4.2 04:01:41 10° NNW 04:06:52 52° WSW 04:11:59 10° S
Okean 1 4.2 04:05:53 10° NNW 04:09:20 30° W 04:12:47 10° SSW
Cosmos 1441 Rocket 3.3 04:07:50 10° NNW 04:11:45 61° W 04:15:37 10° S
Cosmos 2034 Rocket 4.0 04:07:48 10° N 04:14:02 84° W 04:20:11 10° S
Cosmos 1805 Rocket 4.3 04:10:23 10° SW 04:14:28 36° WNW 04:18:33 10° N
OPS 6432 4.4 04:12:47 10° NW 04:15:49 60° WSW 04:19:31 10° SSE
Sich 1 3.5 04:12:43 10° SSW 04:16:48 42° WNW 04:20:53 10° N
Cosmos 304 Rocket 4.0 04:13:21 10° NNW 04:17:58 50° WSW 04:22:33 10° S
Cosmos 1484 Rocket 3.4 04:15:06 10° NNE 04:18:59 59° E 04:22:48 10° S
Cosmos 1666 Rocket 3.6 04:15:27 10° S 04:19:52 83° W 04:24:22 10° N
PAYLOAD A 4.4 04:14:47 10° N 04:20:03 58° WNW 04:25:21 10° SSW
ADEOS II 4.3 04:19:50 10° NW 04:20:21 10° WNW 04:20:54 10° WNW
BREEZE-M DEB (TANK) 4.4 04:14:00 10° WSW 04:22:07 54° NNW 04:25:12 10° NE
Meteor 1-14 Rocket 4.4 04:17:29 10° SSW 04:23:15 64° W 04:28:57 10° N
